Flag for Canada Weather past 2 weeks in Paradise, Newfoundland and Labrador, Canada

Now
70 °F

Broken clouds.


Feels Like: 70 °F
Forecast: N/A
Wind: 5 mph from South

Location: St. John's

Current Time: Sep 1, 2015 at 6:36:24 PM

Latest Report: Sep 1, 2015 at 5:30 PM


Visibility: 15 mi

Pressure: 29.48 "Hg

Humidity: 73%

Dew point: 61 °F

Location of ParadiseLocation

Historic Weather in Paradise — Graph

°F

Paradise temperature yesterday

Maximum temperature yesterday: 73 °F (at 12:30 PM)
Minimum temperature yesterday: 61 °F (at 12:30 AM)
Average temperature yesterday: 65 °F

Past Weeks' High & Low Weather Summary

 TemperatureHumidityPressure
High81 °F (Aug 18, 1:30 PM)100% (Aug 21, 7:23 AM)30.43 "Hg (Aug 21, 7:23 AM)
Low50 °F (Aug 26, 1:30 AM)38% (Aug 30, 12:30 PM)29.47 "Hg (Sep 1, 3:30 PM)
Average63 °F84%30.07 "Hg
* Reported Aug 17 5:30 PM — Sep 1 5:30 PM, Paradise, Weather by CustomWeather, © 2015

Note: Actual official high and low records may vary slightly from our data, if they occured in-between our weather recording intervals... More about our weather records

Advertising

Paradise weather history for previous 24 hours

 ConditionsComfort  
Time TempWeatherWind HumidityBarometerVisibility
5:30 PM
Tue, Sep 1
70 °FBroken clouds.5 mph73%29.48 "Hg15 mi
4:30 PM63 °FScattered clouds.10 mph94%29.48 "Hg15 mi
3:30 PM68 °FBroken clouds.8 mph83%29.47 "Hg15 mi
2:30 PM66 °FBroken clouds.6 mph100%29.48 "Hg10 mi
1:30 PM63 °FSprinkles. Fog.3 mph94%29.49 "Hg0 mi
12:30 PM68 °FMostly cloudy.9 mph88%29.49 "Hg12 mi
11:30 AM66 °FLow clouds.8 mph94%29.54 "Hg10 mi
10:30 AM64 °FFog.15 mph94%29.55 "Hg1 mi
9:30 AM61 °FFog.14 mph100%29.58 "Hg1 mi
8:30 AM61 °FFog.13 mph94%29.60 "Hg1 mi
7:30 AM59 °FLow clouds.15 mph100%29.61 "Hg8 mi
6:30 AM59 °FDrizzle. Fog.17 mph100%29.63 "Hg4 mi
5:30 AM61 °FDrizzle. Fog.16 mph94%29.65 "Hg4 mi
4:30 AM63 °FRain. Fog.12 mph94%29.67 "Hg1 mi
3:30 AM61 °FPassing clouds.9 mph94%29.70 "Hg15 mi
2:30 AM63 °FPassing clouds.12 mph94%29.73 "Hg15 mi
1:30 AM63 °FLow clouds.10 mph94%29.75 "Hg15 mi
12:30 AM61 °FMostly cloudy.14 mph94%29.77 "Hg15 mi
11:30 PM
Mon, Aug 31
61 °FPartly cloudy.10 mph94%29.79 "Hg15 mi
10:30 PM61 °FPassing clouds.14 mph88%29.81 "Hg15 mi
9:30 PM61 °FPassing clouds.8 mph88%29.82 "Hg15 mi
8:30 PM63 °FPartly cloudy.9 mph88%29.83 "Hg15 mi
7:30 PM66 °FBroken clouds.12 mph78%29.83 "Hg15 mi
6:30 PM68 °FMore clouds than sun.13 mph73%29.83 "Hg15 mi
Weather by CustomWeather, © 2015

See weather overviewHow to use our weather pages